Hoquiam, WA
on Monday, November 19, 2012

Monday
Previous Day Next Day
Daily Summary
 ActualAverageRecord
Temperature
Mean Temperature °F 45°F  
Max Temperature 55°F 50°F 62°F (1987)
Min Temperature 46°F 40°F 24°F (1977)
Degree Days
Heating Degree Days 14 20  
Month to date heating degree days 343  
Cooling Degree Days 0 0  
Month to date cooling degree days 0  
Year to date cooling degree days 23  
Moisture
Dew Point 50°F   
Average Humidity 92    
Maximum Humidity 100    
Minimum Humidity 83    
Precipitation
Precipitation 2.84 in 0.39 in 2.84 in (2012)
Month to date precipitation 7.01  
Year to date precipitation 53.43  
Wind
Wind Speed 16 mph   
Max Wind Speed 41 mph   
Max Gust Speed 61 mph   
Visibility 6 miles   
Events Rain   

Key: T is trace of precipitation, MM is missing value
Source: NWS Daily Summary
Time(PST)TemperatureDew PointHumidity Pressure Visibility Wind DirectionWind SpeedGust SpeedPrecipitationEvents Conditions
12:53 AM 54.0°F 51.1°F 90% 29.52 in 10.0 miles South 19.6 mph 24.2 mph N/A   Overcast
1:53 AM 53.1°F 51.1°F 93% 29.51 in 8.0 miles South 13.8 mph - 0.00 in   Overcast
2:45 AM 53.6°F 51.8°F 94% 29.50 in 10.0 miles SSE 8.1 mph - 0.01 in Rain Light Rain
2:53 AM 54.0°F 51.1°F 90% 29.51 in 10.0 miles SSE 11.5 mph - 0.01 in   Overcast
3:14 AM 53.6°F 51.8°F 94% 29.51 in 8.0 miles South 13.8 mph - 0.01 in Rain Light Rain
3:51 AM 53.6°F 51.8°F 94% 29.48 in 5.0 miles South 8.1 mph - 0.08 in Rain Light Rain
3:53 AM 53.1°F 52.0°F 96% 29.49 in 5.0 miles South 8.1 mph - 0.09 in Rain Light Rain
3:55 AM 53.6°F 51.8°F 94% 29.48 in 4.0 miles South 10.4 mph - 0.01 in Rain Light Rain
4:12 AM 53.6°F 51.8°F 94% 29.48 in 5.0 miles South 11.5 mph - 0.06 in Rain Light Rain
4:53 AM 53.1°F 51.1°F 93% 29.47 in 2.5 miles SSE 4.6 mph - 0.22 in Rain Rain
5:01 AM 53.6°F 51.8°F 94% 29.47 in 3.0 miles Variable 3.5 mph - 0.02 in Rain Rain
5:25 AM 51.8°F 50.0°F 94% 29.46 in 4.0 miles ENE 4.6 mph - 0.09 in Rain Rain
5:51 AM 50.0°F 48.2°F 94% 29.45 in 4.0 miles East 9.2 mph - 0.18 in Rain Rain
5:53 AM 50.0°F 48.9°F 96% 29.46 in 4.0 miles ENE 10.4 mph - 0.19 in Rain Rain
6:04 AM 51.8°F 50.0°F 94% 29.45 in 4.0 miles ENE 9.2 mph - 0.06 in Rain Rain
6:48 AM 50.0°F 48.2°F 94% 29.43 in 4.0 miles NE 6.9 mph - 0.29 in Rain Rain
6:53 AM 50.0°F 48.9°F 96% 29.44 in 4.0 miles NE 6.9 mph - 0.31 in Rain Rain
7:30 AM 50.0°F 48.2°F 94% 29.42 in 2.5 miles NE 4.6 mph - 0.23 in Rain Heavy Rain
7:53 AM 48.9°F 46.9°F 93% 29.42 in 2.5 miles NE 9.2 mph - 0.42 in Rain Heavy Rain
8:25 AM 48.2°F 46.4°F 93% 29.41 in 1.0 miles NNE 12.7 mph - 0.27 in Rain Heavy Rain
8:33 AM 48.2°F 46.4°F 93% 29.40 in 0.8 miles NNE 10.4 mph - 0.38 in Rain Heavy Rain
8:40 AM 51.8°F 48.2°F 88% 29.40 in 1.0 miles Variable 4.6 mph 17.3 mph 0.45 in Rain Heavy Rain
8:53 AM 52.0°F 51.1°F 97% 29.39 in 1.5 miles Variable 5.8 mph 23.0 mph 0.54 in Rain Rain
8:58 AM 51.8°F 51.8°F 100% 29.37 in 1.2 miles SSE 16.1 mph 26.5 mph 0.04 in Rain Rain
9:09 AM 53.6°F 51.8°F 94% 29.37 in 0.8 miles South 23.0 mph 32.2 mph 0.23 in Rain Heavy Rain
9:18 AM 53.6°F 51.8°F 94% 29.36 in 1.0 miles South 17.3 mph 28.8 mph 0.32 in Rain Heavy Rain
9:27 AM 55.4°F 53.6°F 94% 29.35 in 2.0 miles South 19.6 mph 29.9 mph 0.35 in Rain Light Rain
9:42 AM 55.4°F 53.6°F 94% 29.35 in 3.0 miles South 27.6 mph 43.7 mph 0.38 in Rain Light Rain
9:51 AM 55.4°F 53.6°F 94% 29.34 in 2.0 miles South 36.8 mph 49.5 mph 0.40 in Rain Light Rain
9:53 AM 55.9°F 53.1°F 90% 29.35 in 1.8 miles South 35.7 mph 49.5 mph 0.40 in   Overcast
9:58 AM 55.4°F 53.6°F 94% 29.34 in 2.0 miles South 36.8 mph 55.2 mph N/A   Overcast
10:23 AM 55.4°F 53.6°F 94% 29.36 in 1.0 miles South 33.4 mph 50.6 mph 0.09 in   Overcast
10:28 AM 55.4°F 53.6°F 94% 29.35 in 0.8 miles South 27.6 mph 50.6 mph 0.15 in Rain Heavy Rain
10:53 AM 54.0°F 53.1°F 97% 29.35 in 1.0 miles SSW 29.9 mph 41.4 mph 0.51 in Rain Heavy Rain
11:09 AM 55.4°F 53.6°F 94% 29.32 in 2.5 miles SSE 35.7 mph 61.0 mph 0.06 in Rain Light Rain
11:28 AM 55.4°F 53.6°F 94% 29.32 in 3.0 miles South 41.4 mph 57.5 mph 0.10 in Rain Light Rain
11:44 AM 55.4°F 51.8°F 88% 29.33 in 2.5 miles South 39.1 mph 57.5 mph 0.11 in   Overcast
11:53 AM 55.9°F 53.1°F 90% 29.33 in 2.5 miles South 34.5 mph 51.8 mph 0.11 in   Overcast
12:02 PM 55.4°F 51.8°F 88% 29.32 in 6.0 miles South 29.9 mph 43.7 mph 0.01 in Rain Light Rain
12:12 PM 55.4°F 51.8°F 88% 29.32 in 8.0 miles SSE 26.5 mph 38.0 mph 0.01 in   Overcast
12:41 PM 55.4°F 51.8°F 88% 29.36 in 8.0 miles South 31.1 mph 43.7 mph 0.01 in   Overcast
12:53 PM 55.0°F 52.0°F 89% 29.38 in 9.0 miles South 34.5 mph 46.0 mph 0.01 in   Mostly Cloudy
1:12 PM 55.4°F 51.8°F 88% 29.38 in 10.0 miles South 28.8 mph 36.8 mph N/A   Mostly Cloudy
1:30 PM 55.4°F 51.8°F 88% 29.39 in 10.0 miles South 28.8 mph 36.8 mph N/A   Mostly Cloudy
1:53 PM 55.0°F 52.0°F 89% 29.41 in 10.0 miles South 25.3 mph 34.5 mph N/A   Mostly Cloudy
2:38 PM 55.4°F 51.8°F 88% 29.42 in 10.0 miles South 19.6 mph 29.9 mph N/A   Mostly Cloudy
2:53 PM 55.0°F 52.0°F 89% 29.43 in 9.0 miles SSW 21.9 mph 27.6 mph N/A   Overcast
3:53 PM 54.0°F 51.1°F 90% 29.47 in 10.0 miles SSW 23.0 mph 27.6 mph N/A   Overcast
4:08 PM 53.6°F 51.8°F 94% 29.46 in 10.0 miles SSW 20.7 mph - N/A   Mostly Cloudy
4:53 PM 53.1°F 50.0°F 89% 29.51 in 10.0 miles SSW 18.4 mph - N/A   Scattered Clouds
5:53 PM 52.0°F 48.9°F 89% 29.54 in 10.0 miles South 13.8 mph - N/A   Overcast
6:53 PM 52.0°F 46.9°F 83% 29.58 in 10.0 miles SSW 12.7 mph - N/A   Overcast
7:53 PM 50.0°F 48.0°F 93% 29.60 in 10.0 miles SSE 4.6 mph - N/A   Overcast
8:53 PM 50.0°F 46.0°F 86% 29.62 in 7.0 miles SW 17.3 mph 24.2 mph 0.01 in Rain Light Rain
9:09 PM 48.2°F 44.6°F 87% 29.62 in 9.0 miles SSW 11.5 mph - 0.01 in Rain Light Rain
9:53 PM 48.0°F 46.0°F 93% 29.64 in 10.0 miles SE 4.6 mph - 0.02 in   Overcast
10:27 PM 46.4°F 44.6°F 93% 29.64 in 10.0 miles ENE 3.5 mph - N/A   Mostly Cloudy
10:53 PM 46.0°F 45.0°F 96% 29.66 in 10.0 miles ENE 5.8 mph - N/A   Mostly Cloudy
11:00 PM 46.4°F 44.6°F 93% 29.65 in 10.0 miles ENE 4.6 mph - N/A   Mostly Cloudy
11:53 PM 48.9°F 46.9°F 93% 29.67 in 10.0 miles ENE 4.6 mph - N/A   Overcast
Moon Phase
Nov. 19 Nov. 20 Nov. 28 Dec. 06 Dec. 13
Sunrise:07:25 AM (PST) Moon Rise:12:22 PM (PST)11/19
Sunset:04:36 PM (PST) Moon Set:11:21 PM (PST)11/19

Copyright © 2014 The Weather Underground, Inc.